Content
SEND FEEDBACK

Daily
Averages
Monthly
Summary
United States of America

ST. LOUIS - MEMORIAL PLAZA, MISSOURI


Home > North America > United States > Missouri
Elevation: 620 feet     Latitude: 38 38N     Longitude: 090 12W

WEATHER
 
SELECT A DAY
Number of Records: 189,817;   Date Range: 1/1/95 - 11/19/14
 
SHARE

PRINT THIS DATA

[ ← Previous Day ]
WEATHER ALMANAC - JANUARY 10, 2013
[ Next Day → ]
[ °C ]   °F
Weather ElementAverageHighLow
Temperature49.5 °F59 °F (10:53 pm)42.8 °F (8:19 am)
Dewpoint45.5 °F57 °F (10:53 pm)32 °F (1:53 am)
Humidity86.7 %100 % (9:00 pm)60 % (3:53 am)
Barometer30.04 in30.43 in (1:53 am)29.78 in (10:53 pm)
Wind Speed8 mph11.5 mph (11:53 am)
Wind Gust19.6 mph (1:53 pm)
Weather ElementAverage
Visibility4.8 mi
Wind DirectionESE (120 °)

Weather ElementTotal
Precipitation0.66 in
Heating Degree Days14.1 (Base 65)
Growing Degree Days0.9 (Base 50)
Averaged from 38 records on January 10, 2013
WEATHER CONDITIONS BREAKOUT
WIND DIRECTION BREAKOUT
WEATHER BY HOUR - JANUARY 10, 2013
[ °C ]   °F
Local TimeTemperatureDewpointHumidityBarometerVisibilityWind DirectionWind SpeedGust SpeedPrecipitationEventsConditions
1:53 AM43.0 °F32.0 °F65 %30.43 in10.0 miENE (70°)6.9 mphClear
2:53 AM44.1 °F32.0 °F63 %30.43 in10.0 miEast (100°)8.1 mphClear
3:53 AM45.0 °F32.0 °F60 %30.38 in10.0 miEast (80°)9.2 mphMostly Cloudy
4:53 AM44.1 °F32.0 °F63 %30.35 in10.0 miEast (90°)8.1 mph0.00 inRainLight Rain
5:53 AM44.1 °F33.1 °F65 %30.33 in10.0 miEast (80°)6.9 mph0.00 inRainLight Rain
6:53 AM44.1 °F33.1 °F65 %30.31 in10.0 miEast (80°)10.4 mph0.00 inOvercast
7:53 AM43.0 °F35.1 °F74 %30.30 in10.0 miENE (70°)9.2 mph0.01 inRainLight Rain
8:19 AM42.8 °F35.6 °F76 %30.28 in10.0 miEast (90°)9.2 mph0.00 inOvercast
8:53 AM44.1 °F36.0 °F73 %30.27 in10.0 miEast (100°)10.4 mph0.01 inRainLight Rain
9:53 AM43.0 °F39.0 °F86 %30.25 in2.0 miESE (110°)8.1 mph0.07 inRainLight Rain
9:58 AM42.8 °F39.2 °F87 %30.24 in2.0 miESE (110°)5.8 mph0.02 inRainRain
10:53 AM44.1 °F41.0 °F89 %30.22 in4.0 miESE (120°)9.2 mph0.04 inOvercast
11:53 AM45.0 °F42.1 °F90 %30.15 in3.0 miESE (110°)11.5 mph0.00 inOvercast
12:21 PM44.6 °F42.8 °F93 %30.10 in2.0 miESE (120°)9.2 mph16.1 mphOvercast
12:53 PM45.0 °F43.0 °F93 %30.12 in2.0 miSE (140°)8.1 mphOvercast
1:20 PM46.4 °F44.6 °F93 %30.08 in1.2 miESE (120°)8.1 mphOvercast
1:53 PM46.0 °F45.0 °F96 %30.06 in1.5 miSE (130°)9.2 mph19.6 mphOvercast
2:53 PM48.0 °F46.0 °F93 %30.01 in3.0 miSE (130°)11.5 mphOvercast
3:53 PM50.0 °F48.0 °F93 %29.98 in1.5 miESE (120°)8.1 mph0.00 inRainLight Rain
4:53 PM50.0 °F48.0 °F93 %29.96 in1.5 miEast (100°)8.1 mph0.01 inRainLight Rain
5:53 PM50.0 °F48.9 °F96 %29.94 in1.5 miESE (110°)6.9 mph0.01 inRainLight Rain
6:53 PM51.1 °F48.9 °F92 %29.94 in2.5 miSE (130°)6.9 mph0.01 inOvercast
7:00 PM51.8 °F48.2 °F88 %29.93 in3.0 miSE (130°)5.8 mphOvercast
7:20 PM51.8 °F50.0 °F94 %29.92 in1.2 miSE (130°)6.9 mphOvercast
7:34 PM51.8 °F50.0 °F94 %29.90 in0.5 miESE (120°)5.8 mphFogFog
7:53 PM52.0 °F51.1 °F97 %29.90 in0.5 miSE (130°)5.8 mphFogFog
8:53 PM54.0 °F53.1 °F97 %29.85 in0.5 miESE (120°)5.8 mph0.02 inFog-RainLight Rain
9:00 PM53.6 °F53.6 °F100 %29.84 in10.0 miESE (120°)6.9 mph0.00 inOvercast
9:09 PM55.4 °F53.6 °F94 %29.83 in2.0 miESE (120°)8.1 mph0.01 inRainLight Rain
9:20 PM55.4 °F53.6 °F94 %29.82 in2.0 miESE (110°)10.4 mph0.06 inRainHeavy Rain
9:46 PM55.4 °F53.6 °F94 %29.81 in2.0 miESE (120°)8.1 mph0.07 inRainLight Rain
9:53 PM55.9 °F54.0 °F93 %29.80 in2.0 miESE (120°)6.9 mph0.08 inRainLight Rain
9:59 PM55.4 °F53.6 °F94 %29.80 in6.0 miSE (130°)8.1 mph0.00 inRainLight Rain
10:11 PM55.4 °F53.6 °F94 %29.79 in6.0 miSSE (150°)8.1 mph0.02 inRainLight Rain
10:27 PM57.2 °F55.4 °F94 %29.79 in4.0 miSSE (150°)8.1 mph0.06 inRainRain
10:53 PM59.0 °F57.0 °F93 %29.78 in4.0 miSSE (160°)8.1 mph17.3 mph0.08 inRainRain
11:25 PM59.0 °F55.4 °F88 %29.80 in10.0 miSW (220°)4.6 mph0.04 inRainLight Rain
11:53 PM59.0 °F55.0 °F87 %29.79 in10.0 miSW (220°)5.8 mph0.04 inScattered Clouds
Hourly data recorded from KCPS, located miles away from St. Louis - Memorial Plaza, Missouri







STORIES FROM OUR PARTNERS